Location: Praha
(50.0830°N, 14.4670°E)
Time: 23:39:02
(UTC+01:00)

ISS - Pass Details

Date: 09 November 2019
Orbit: 412 x 421 km, 51.6° (Epoch: 15 November)

Event Time Altitude Azimuth Distance (km) Brightness Sun altitude
Exits shadow 05:46:48 20° 258° (WSW) 1,032 -2.3 -12.6°
Maximum altitude 05:48:20 29° 214° (SSW) 794 -2.6 -12.4°
Drops below altitude 10° 05:51:18 10° 151° (SSE) 1,497 -0.4 -11.9°
Sets 05:53:33 0° 140° (SE) 2,356 1.0 -11.6°
